Year,Month,Day,Hour,Minute,Value (Times are PST for temperature in C)
2023,03,29,08,22,9.60
2023,03,29,08,23,9.60
2023,03,29,08,24,9.60
2023,03,29,08,25,9.60
2023,03,29,08,26,9.70
2023,03,29,08,27,9.70
2023,03,29,08,28,9.70
2023,03,29,08,29,9.80
2023,03,29,08,30,9.80
2023,03,29,08,31,9.90
2023,03,29,08,32,9.90
2023,03,29,08,33,10.00
2023,03,29,08,34,10.00
2023,03,29,08,35,10.00
2023,03,29,08,36,10.10
2023,03,29,08,37,10.10
2023,03,29,08,38,10.10
2023,03,29,08,39,10.20
2023,03,29,08,40,10.20
2023,03,29,08,41,10.20
2023,03,29,08,42,10.20
2023,03,29,08,43,10.20
2023,03,29,08,44,10.20
2023,03,29,08,45,10.20
2023,03,29,08,46,10.20
2023,03,29,08,47,10.30
2023,03,29,08,48,10.30
2023,03,29,08,49,10.40
2023,03,29,08,50,10.40
2023,03,29,08,51,10.40
2023,03,29,08,52,10.50
2023,03,29,08,53,10.60
2023,03,29,08,54,10.60
2023,03,29,08,55,10.60
2023,03,29,08,56,10.60
2023,03,29,08,57,10.70
2023,03,29,08,58,10.70
2023,03,29,08,59,10.80
2023,03,29,09,00,10.80
2023,03,29,09,01,10.80
2023,03,29,09,02,10.90
2023,03,29,09,03,10.90
2023,03,29,09,04,10.90
2023,03,29,09,05,11.00
2023,03,29,09,06,11.10
2023,03,29,09,07,11.10
2023,03,29,09,08,11.10
2023,03,29,09,09,11.20
2023,03,29,09,10,11.20
2023,03,29,09,11,11.30
2023,03,29,09,12,11.30
2023,03,29,09,13,11.40
2023,03,29,09,14,11.40
2023,03,29,09,15,11.40
2023,03,29,09,16,11.40
2023,03,29,09,17,11.50
2023,03,29,09,18,11.50
2023,03,29,09,19,11.60
2023,03,29,09,20,11.70
2023,03,29,09,21,11.70
2023,03,29,09,22,11.70
2023,03,29,09,23,11.80
2023,03,29,09,24,11.80
2023,03,29,09,25,11.80
2023,03,29,09,26,11.80
2023,03,29,09,27,11.90
2023,03,29,09,28,11.90
2023,03,29,09,29,12.00
2023,03,29,09,30,12.00
2023,03,29,09,31,12.10
2023,03,29,09,32,12.10
2023,03,29,09,33,12.10
2023,03,29,09,34,12.10
2023,03,29,09,35,12.10
2023,03,29,09,36,12.10
2023,03,29,09,37,12.20
2023,03,29,09,38,12.20
2023,03,29,09,39,12.20
2023,03,29,09,40,12.20
2023,03,29,09,41,12.20
2023,03,29,09,42,12.20
2023,03,29,09,43,12.30
2023,03,29,09,44,12.30
2023,03,29,09,45,12.30
2023,03,29,09,46,12.30
2023,03,29,09,47,12.40
2023,03,29,09,48,12.40
2023,03,29,09,49,12.40
2023,03,29,09,50,12.40
2023,03,29,09,51,12.50
2023,03,29,09,52,12.50
2023,03,29,09,53,12.50
2023,03,29,09,54,12.60
2023,03,29,09,55,12.60
2023,03,29,09,56,12.50
2023,03,29,09,57,12.40
2023,03,29,09,58,12.30
2023,03,29,09,59,12.20
2023,03,29,10,00,12.10
2023,03,29,10,01,12.00
2023,03,29,10,02,12.00
2023,03,29,10,03,12.00
2023,03,29,10,04,12.00
2023,03,29,10,05,11.90
2023,03,29,10,06,12.00
2023,03,29,10,07,11.90
2023,03,29,10,08,11.80
2023,03,29,10,09,11.80
2023,03,29,10,10,11.80
2023,03,29,10,11,11.80
2023,03,29,10,12,11.80
2023,03,29,10,13,11.70
2023,03,29,10,14,11.70
2023,03,29,10,15,11.80
2023,03,29,10,16,11.80
2023,03,29,10,17,11.90
2023,03,29,10,18,11.90
2023,03,29,10,19,12.00
2023,03,29,10,20,12.00
2023,03,29,10,21,12.00
2023,03,29,10,22,12.10
2023,03,29,10,23,12.10
2023,03,29,10,24,12.10
2023,03,29,10,25,12.10
2023,03,29,10,26,12.00
2023,03,29,10,27,11.90
2023,03,29,10,28,11.70
2023,03,29,10,29,11.70
2023,03,29,10,30,11.60
2023,03,29,10,31,11.70
2023,03,29,10,32,11.80
2023,03,29,10,33,11.90
2023,03,29,10,34,11.90
2023,03,29,10,35,11.90
2023,03,29,10,36,12.00
2023,03,29,10,37,12.00
2023,03,29,10,38,12.00
2023,03,29,10,39,12.10
2023,03,29,10,40,12.10
2023,03,29,10,41,12.20
2023,03,29,10,42,12.20
2023,03,29,10,43,12.30
2023,03,29,10,44,12.40
2023,03,29,10,45,12.40
2023,03,29,10,46,12.30
2023,03,29,10,47,12.30
2023,03,29,10,48,12.20
2023,03,29,10,49,12.20
2023,03,29,10,50,12.10
2023,03,29,10,51,12.00
2023,03,29,10,52,12.00
2023,03,29,10,53,11.90
2023,03,29,10,54,11.80
2023,03,29,10,55,11.80
2023,03,29,10,56,11.70
2023,03,29,10,57,11.70
2023,03,29,10,58,11.70
2023,03,29,10,59,11.60
2023,03,29,11,00,11.70
2023,03,29,11,01,11.80
2023,03,29,11,02,12.00
2023,03,29,11,03,12.10
2023,03,29,11,04,12.10
2023,03,29,11,05,12.20
2023,03,29,11,06,12.40
2023,03,29,11,07,12.50
2023,03,29,11,08,12.50
2023,03,29,11,09,12.60
2023,03,29,11,10,12.70
2023,03,29,11,11,12.80
2023,03,29,11,12,13.00
2023,03,29,11,13,13.30
2023,03,29,11,14,13.50
2023,03,29,11,15,13.70
2023,03,29,11,16,13.70
2023,03,29,11,17,13.70
2023,03,29,11,18,13.70
2023,03,29,11,19,13.80
2023,03,29,11,20,13.90
2023,03,29,11,21,14.00
2023,03,29,11,22,14.10
2023,03,29,11,23,14.10
2023,03,29,11,24,14.30
2023,03,29,11,25,14.20
2023,03,29,11,26,14.10
2023,03,29,11,27,14.10
2023,03,29,11,28,14.10
2023,03,29,11,29,14.10
2023,03,29,11,30,14.00
2023,03,29,11,31,14.00
2023,03,29,11,32,14.00
2023,03,29,11,33,13.90
2023,03,29,11,34,13.90
2023,03,29,11,35,13.90
2023,03,29,11,36,13.90
2023,03,29,11,37,13.80
2023,03,29,11,38,13.80
2023,03,29,11,39,13.70
2023,03,29,11,40,13.60
2023,03,29,11,41,13.60
2023,03,29,11,42,13.70
2023,03,29,11,43,13.80
2023,03,29,11,44,13.90
2023,03,29,11,45,13.90
2023,03,29,11,46,14.00
2023,03,29,11,47,13.90
2023,03,29,11,48,13.80
2023,03,29,11,49,13.60
2023,03,29,11,50,13.60
2023,03,29,11,51,13.70
2023,03,29,11,52,13.80
2023,03,29,11,53,13.80
2023,03,29,11,54,13.90
2023,03,29,11,55,14.00
2023,03,29,11,56,14.00
2023,03,29,11,57,14.00
2023,03,29,11,58,14.10
2023,03,29,11,59,14.10
2023,03,29,12,00,14.20
2023,03,29,12,01,14.20
2023,03,29,12,02,14.20
2023,03,29,12,03,14.10
2023,03,29,12,04,14.10
2023,03,29,12,05,14.10
2023,03,29,12,06,14.10
2023,03,29,12,07,14.10
2023,03,29,12,08,14.10
2023,03,29,12,09,14.10
2023,03,29,12,10,14.00
2023,03,29,12,11,14.00
2023,03,29,12,12,14.00
2023,03,29,12,13,14.10
2023,03,29,12,14,14.10
2023,03,29,12,15,14.10
2023,03,29,12,16,14.20
2023,03,29,12,17,14.30
2023,03,29,12,18,14.30
2023,03,29,12,19,14.30
2023,03,29,12,20,14.30
2023,03,29,12,21,14.20
2023,03,29,12,22,14.10
2023,03,29,12,23,14.10
2023,03,29,12,24,14.10
2023,03,29,12,25,14.10
2023,03,29,12,26,14.20
2023,03,29,12,27,14.20
2023,03,29,12,28,14.20
2023,03,29,12,29,14.20
2023,03,29,12,30,14.20
2023,03,29,12,31,14.30
2023,03,29,12,32,14.40
2023,03,29,12,33,14.40
2023,03,29,12,34,14.40
2023,03,29,12,35,14.50
2023,03,29,12,36,14.50
2023,03,29,12,37,14.50
2023,03,29,12,38,14.50
2023,03,29,12,39,14.50
2023,03,29,12,40,14.40
2023,03,29,12,41,14.40
2023,03,29,12,42,14.40
2023,03,29,12,43,14.60
2023,03,29,12,44,14.70
2023,03,29,12,45,14.80
2023,03,29,12,46,14.90
2023,03,29,12,47,14.90
2023,03,29,12,48,14.80
2023,03,29,12,49,14.50
2023,03,29,12,50,14.30
2023,03,29,12,51,14.10
2023,03,29,12,52,13.90
2023,03,29,12,53,13.80
2023,03,29,12,54,13.70
2023,03,29,12,55,13.60
2023,03,29,12,56,13.60
2023,03,29,12,57,13.60
2023,03,29,12,58,13.60
2023,03,29,12,59,13.60
2023,03,29,13,00,13.70
2023,03,29,13,01,13.70
2023,03,29,13,02,13.70
2023,03,29,13,03,13.80
2023,03,29,13,04,13.70
2023,03,29,13,05,13.60
2023,03,29,13,06,13.60
2023,03,29,13,07,13.70
2023,03,29,13,08,13.70
2023,03,29,13,09,13.80
2023,03,29,13,10,14.00
2023,03,29,13,11,14.10
2023,03,29,13,12,14.10
2023,03,29,13,13,13.90
2023,03,29,13,14,13.80
2023,03,29,13,15,13.80
2023,03,29,13,16,13.80
2023,03,29,13,17,13.70
2023,03,29,13,18,13.70
2023,03,29,13,19,13.70
2023,03,29,13,20,13.80
2023,03,29,13,21,13.80
2023,03,29,13,22,13.90
2023,03,29,13,23,13.90
2023,03,29,13,24,14.00
2023,03,29,13,25,14.10
2023,03,29,13,26,14.30
2023,03,29,13,27,14.50
2023,03,29,13,28,14.60
2023,03,29,13,29,14.70
2023,03,29,13,30,14.70
2023,03,29,13,31,14.70
2023,03,29,13,32,14.40
2023,03,29,13,33,14.20
2023,03,29,13,34,14.00
2023,03,29,13,35,13.80
2023,03,29,13,36,13.70
2023,03,29,13,37,13.80
2023,03,29,13,38,13.90
2023,03,29,13,39,13.90
2023,03,29,13,40,14.00
2023,03,29,13,41,14.10
2023,03,29,13,42,14.00
2023,03,29,13,43,13.90
2023,03,29,13,44,13.70
2023,03,29,13,45,13.50
2023,03,29,13,46,13.40
2023,03,29,13,47,13.40
2023,03,29,13,48,13.60
2023,03,29,13,49,13.70
2023,03,29,13,50,13.90
2023,03,29,13,51,13.90
2023,03,29,13,52,14.00
2023,03,29,13,53,14.10
2023,03,29,13,54,14.10
2023,03,29,13,55,14.10
2023,03,29,13,56,14.10
2023,03,29,13,57,14.10
2023,03,29,13,58,14.20
2023,03,29,13,59,14.20
2023,03,29,14,00,14.30
2023,03,29,14,01,14.30
2023,03,29,14,02,14.20
2023,03,29,14,03,14.00
2023,03,29,14,04,13.90
2023,03,29,14,05,13.90
2023,03,29,14,06,13.80
2023,03,29,14,07,13.70
2023,03,29,14,08,13.70
2023,03,29,14,09,13.60
2023,03,29,14,10,13.60
2023,03,29,14,11,13.60
2023,03,29,14,12,13.60
2023,03,29,14,13,13.50
2023,03,29,14,14,13.60
2023,03,29,14,15,13.60
2023,03,29,14,16,13.50
2023,03,29,14,17,13.50
2023,03,29,14,18,13.50
2023,03,29,14,19,13.50
2023,03,29,14,20,13.50
2023,03,29,14,21,13.50
2023,03,29,14,22,13.60
2023,03,29,14,23,13.60
2023,03,29,14,24,13.70
2023,03,29,14,25,13.70
2023,03,29,14,26,13.80
2023,03,29,14,27,14.00
2023,03,29,14,28,14.00
2023,03,29,14,29,14.00
2023,03,29,14,30,13.90
2023,03,29,14,31,13.80
2023,03,29,14,32,13.70
2023,03,29,14,33,13.70
2023,03,29,14,34,13.70
2023,03,29,14,35,13.80
2023,03,29,14,36,13.60
2023,03,29,14,37,13.50
2023,03,29,14,38,13.40
2023,03,29,14,39,13.30
2023,03,29,14,40,13.20
2023,03,29,14,41,13.30
2023,03,29,14,42,13.30
2023,03,29,14,43,13.40
2023,03,29,14,44,13.50
2023,03,29,14,45,13.60
2023,03,29,14,46,13.60
2023,03,29,14,47,13.40
2023,03,29,14,48,13.20
2023,03,29,14,49,12.90
2023,03,29,14,50,12.90
2023,03,29,14,51,12.90
2023,03,29,14,52,12.80
2023,03,29,14,53,12.80
2023,03,29,14,54,12.90
2023,03,29,14,55,13.00
2023,03,29,14,56,13.00
2023,03,29,14,57,13.10
2023,03,29,14,58,13.30
2023,03,29,14,59,13.40
2023,03,29,15,00,13.50
2023,03,29,15,01,13.60
2023,03,29,15,02,13.70
2023,03,29,15,03,13.70
2023,03,29,15,04,13.70
2023,03,29,15,05,13.60
2023,03,29,15,06,13.50
2023,03,29,15,07,13.30
2023,03,29,15,08,13.30
2023,03,29,15,09,13.30
2023,03,29,15,10,13.20
2023,03,29,15,11,13.30
2023,03,29,15,12,13.30
2023,03,29,15,13,13.20
2023,03,29,15,14,13.20
2023,03,29,15,15,13.20
2023,03,29,15,16,13.10
2023,03,29,15,17,12.90
2023,03,29,15,18,12.80
2023,03,29,15,19,12.70
2023,03,29,15,20,12.70
2023,03,29,15,21,12.60
2023,03,29,15,22,12.60
2023,03,29,15,23,12.60
2023,03,29,15,24,12.60
2023,03,29,15,25,12.60
2023,03,29,15,26,12.70
2023,03,29,15,27,12.80
2023,03,29,15,28,12.90
2023,03,29,15,29,13.00
2023,03,29,15,30,13.10
2023,03,29,15,31,13.10
2023,03,29,15,32,13.10
2023,03,29,15,33,13.20
2023,03,29,15,34,13.20
2023,03,29,15,35,13.30
2023,03,29,15,36,13.40
2023,03,29,15,37,13.40
2023,03,29,15,38,13.50
2023,03,29,15,39,13.60
2023,03,29,15,40,13.70
2023,03,29,15,41,13.80
2023,03,29,15,42,13.90
2023,03,29,15,43,14.00
2023,03,29,15,44,14.10
2023,03,29,15,45,14.10
2023,03,29,15,46,14.10
2023,03,29,15,47,14.00
2023,03,29,15,48,14.00
2023,03,29,15,49,14.00
2023,03,29,15,50,13.90
2023,03,29,15,51,13.80
2023,03,29,15,52,13.80
2023,03,29,15,53,13.90
2023,03,29,15,54,14.00
2023,03,29,15,55,14.10
2023,03,29,15,56,14.20
2023,03,29,15,57,14.30
2023,03,29,15,58,14.50
2023,03,29,15,59,14.60
2023,03,29,16,00,14.60
2023,03,29,16,01,14.70
2023,03,29,16,02,14.70
2023,03,29,16,03,14.70
2023,03,29,16,04,14.80
2023,03,29,16,05,14.70
2023,03,29,16,06,14.70
2023,03,29,16,07,14.60
2023,03,29,16,08,14.60
2023,03,29,16,09,14.60
2023,03,29,16,10,14.60
2023,03,29,16,11,14.60
2023,03,29,16,12,14.70
2023,03,29,16,13,14.70
2023,03,29,16,14,14.60
2023,03,29,16,15,14.60
2023,03,29,16,16,14.50
2023,03,29,16,17,14.40
2023,03,29,16,18,14.40
2023,03,29,16,19,14.40
2023,03,29,16,20,14.30
2023,03,29,16,21,14.30
2023,03,29,16,22,14.40
2023,03,29,16,23,14.40
2023,03,29,16,24,14.30
2023,03,29,16,25,14.20
2023,03,29,16,26,14.10
2023,03,29,16,27,14.00
2023,03,29,16,28,14.00
2023,03,29,16,29,14.00
2023,03,29,16,30,14.00
2023,03,29,16,31,14.00
2023,03,29,16,32,14.00
2023,03,29,16,33,14.10
2023,03,29,16,34,14.10
2023,03,29,16,35,14.10
2023,03,29,16,36,14.10
2023,03,29,16,37,14.00
2023,03,29,16,38,14.00
2023,03,29,16,39,14.00
2023,03,29,16,40,14.00
2023,03,29,16,41,14.10
2023,03,29,16,42,14.10
2023,03,29,16,43,14.20
2023,03,29,16,44,14.20
2023,03,29,16,45,14.20
2023,03,29,16,46,14.20
2023,03,29,16,47,14.20
2023,03,29,16,48,14.20
2023,03,29,16,49,14.20
2023,03,29,16,50,14.10
2023,03,29,16,51,14.10
2023,03,29,16,52,14.10
2023,03,29,16,53,14.00
2023,03,29,16,54,13.90
2023,03,29,16,55,13.90
2023,03,29,16,56,13.90
2023,03,29,16,57,13.90
2023,03,29,16,58,13.90
2023,03,29,16,59,14.00
2023,03,29,17,00,14.00
2023,03,29,17,01,14.10
2023,03,29,17,02,14.10
2023,03,29,17,03,14.20
2023,03,29,17,04,14.20
2023,03,29,17,05,14.30
2023,03,29,17,06,14.30
2023,03,29,17,07,14.30
2023,03,29,17,08,14.30
2023,03,29,17,09,14.30
2023,03,29,17,10,14.40
2023,03,29,17,11,14.30
2023,03,29,17,12,14.30
2023,03,29,17,13,14.30
2023,03,29,17,14,14.30
2023,03,29,17,15,14.20
2023,03,29,17,16,14.20
2023,03,29,17,17,14.20
2023,03,29,17,18,14.10
2023,03,29,17,19,14.10
2023,03,29,17,20,14.10
2023,03,29,17,21,14.10
2023,03,29,17,22,14.10
2023,03,29,17,23,14.00
2023,03,29,17,24,13.90
2023,03,29,17,25,13.80
2023,03,29,17,26,13.80
2023,03,29,17,27,13.80
2023,03,29,17,28,13.80
2023,03,29,17,29,13.80
2023,03,29,17,30,13.80
2023,03,29,17,31,13.80
2023,03,29,17,32,13.80
2023,03,29,17,33,13.80
2023,03,29,17,34,13.80
2023,03,29,17,35,13.80
2023,03,29,17,36,13.90
2023,03,29,17,37,13.90
2023,03,29,17,38,13.90
2023,03,29,17,39,13.90
2023,03,29,17,40,13.90
2023,03,29,17,41,13.80
2023,03,29,17,42,13.70
2023,03,29,17,43,13.60
2023,03,29,17,44,13.50
2023,03,29,17,45,13.40
2023,03,29,17,46,13.30
2023,03,29,17,47,13.10
2023,03,29,17,48,12.90
2023,03,29,17,49,12.80
2023,03,29,17,50,12.80
2023,03,29,17,51,12.70
2023,03,29,17,52,12.70
2023,03,29,17,53,12.70
2023,03,29,17,54,12.70
2023,03,29,17,55,12.70
2023,03,29,17,56,12.70
2023,03,29,17,57,12.60
2023,03,29,17,58,12.60
2023,03,29,17,59,12.50
2023,03,29,18,00,12.50
2023,03,29,18,01,12.40
2023,03,29,18,02,12.30
2023,03,29,18,03,12.30
2023,03,29,18,04,12.20
2023,03,29,18,05,12.10
2023,03,29,18,06,12.00
2023,03,29,18,07,11.90
2023,03,29,18,08,11.80
2023,03,29,18,09,11.70
2023,03,29,18,10,11.60
2023,03,29,18,11,11.60
2023,03,29,18,12,11.50
2023,03,29,18,13,11.50
2023,03,29,18,14,11.50
2023,03,29,18,15,11.50
2023,03,29,18,16,11.50
2023,03,29,18,17,11.50
2023,03,29,18,18,11.50
2023,03,29,18,19,11.60
2023,03,29,18,20,11.60
2023,03,29,18,21,11.60
2023,03,29,18,22,11.70
2023,03,29,18,23,11.70
2023,03,29,18,24,11.70
2023,03,29,18,25,11.60
2023,03,29,18,26,11.60
2023,03,29,18,27,11.60
2023,03,29,18,28,11.50
2023,03,29,18,29,11.40
2023,03,29,18,30,11.40
2023,03,29,18,31,11.40
2023,03,29,18,32,11.40
2023,03,29,18,33,11.50
2023,03,29,18,34,11.50
2023,03,29,18,35,11.60
2023,03,29,18,36,11.60
2023,03,29,18,37,11.60
2023,03,29,18,38,11.70
2023,03,29,18,39,11.70
2023,03,29,18,40,11.70
2023,03,29,18,41,11.80
2023,03,29,18,42,11.80
2023,03,29,18,43,11.80
2023,03,29,18,44,11.90
2023,03,29,18,45,12.00
2023,03,29,18,46,12.00
2023,03,29,18,47,12.10
2023,03,29,18,48,12.20
2023,03,29,18,49,12.30
2023,03,29,18,50,12.40
2023,03,29,18,51,12.40
2023,03,29,18,52,12.50
2023,03,29,18,53,12.60
2023,03,29,18,54,12.70
2023,03,29,18,55,12.80
2023,03,29,18,56,12.80
2023,03,29,18,57,12.80
2023,03,29,18,58,12.90
2023,03,29,18,59,12.90
2023,03,29,19,00,12.90
2023,03,29,19,01,12.90
2023,03,29,19,02,12.90
2023,03,29,19,03,12.90
2023,03,29,19,04,12.90
2023,03,29,19,05,12.80
2023,03,29,19,06,12.80
2023,03,29,19,07,12.80
2023,03,29,19,08,12.80
2023,03,29,19,09,12.80
2023,03,29,19,10,12.80
2023,03,29,19,11,12.80
2023,03,29,19,12,12.70
2023,03,29,19,13,12.70
2023,03,29,19,14,12.70
2023,03,29,19,15,12.70
2023,03,29,19,16,12.70
2023,03,29,19,17,12.70
2023,03,29,19,18,12.70
2023,03,29,19,19,12.70
2023,03,29,19,20,12.70
2023,03,29,19,21,12.70
2023,03,29,19,22,12.60
2023,03,29,19,23,12.60
2023,03,29,19,24,12.50
2023,03,29,19,25,12.50
2023,03,29,19,26,12.40
2023,03,29,19,27,12.40
2023,03,29,19,28,12.30
2023,03,29,19,29,12.10
2023,03,29,19,30,12.10
2023,03,29,19,31,12.10
2023,03,29,19,32,12.10
2023,03,29,19,33,12.10
2023,03,29,19,34,12.10
2023,03,29,19,35,12.10
2023,03,29,19,36,12.10
2023,03,29,19,37,12.10
2023,03,29,19,38,12.10
2023,03,29,19,39,12.10
2023,03,29,19,40,12.10
